TimeEDT,TemperatureF,Dew PointF,Humidity,Sea Level PressureIn,VisibilityMPH,Wind Direction,Wind SpeedMPH,Gust SpeedMPH,PrecipitationIn,Events,Conditions,WindDirDegrees,DateUTC
12:14 AM,46.2,34.7,64,30.05,10.0,Calm,Calm,-,N/A,,Clear,0,2013-05-08 04:14:00
12:34 AM,46.0,33.8,62,30.05,10.0,Calm,Calm,-,N/A,,Clear,0,2013-05-08 04:34:00
12:54 AM,45.0,34.5,67,30.05,10.0,Calm,Calm,-,N/A,,Clear,0,2013-05-08 04:54:00
1:14 AM,43.7,34.9,71,30.04,10.0,NNW,3.5,-,N/A,,Clear,330,2013-05-08 05:14:00
1:34 AM,41.5,34.0,75,30.04,10.0,NW,3.5,-,N/A,,Clear,320,2013-05-08 05:34:00
1:54 AM,43.3,34.0,70,30.04,10.0,Calm,Calm,-,N/A,,Clear,0,2013-05-08 05:54:00
2:14 AM,42.1,34.5,75,30.03,10.0,Calm,Calm,-,N/A,,Clear,0,2013-05-08 06:14:00
2:34 AM,44.4,35.4,71,30.03,10.0,Calm,Calm,-,N/A,,Clear,0,2013-05-08 06:34:00
2:54 AM,43.7,34.9,71,30.03,10.0,NNW,3.5,-,N/A,,Clear,330,2013-05-08 06:54:00
3:14 AM,44.1,34.7,70,30.03,10.0,Calm,Calm,-,N/A,,Clear,0,2013-05-08 07:14:00
3:34 AM,44.8,34.2,66,30.03,10.0,Calm,Calm,-,N/A,,Clear,0,2013-05-08 07:34:00
3:54 AM,44.8,33.8,65,30.03,10.0,Calm,Calm,-,N/A,,Clear,0,2013-05-08 07:54:00
4:14 AM,42.6,33.4,70,30.03,10.0,Calm,Calm,-,N/A,,Clear,0,2013-05-08 08:14:00
4:34 AM,42.4,33.8,71,30.03,10.0,Calm,Calm,-,N/A,,Clear,0,2013-05-08 08:34:00
4:54 AM,43.2,33.3,68,30.03,10.0,Calm,Calm,-,N/A,,Clear,0,2013-05-08 08:54:00
5:14 AM,42.1,32.9,70,30.03,10.0,North,3.5,-,N/A,,Clear,350,2013-05-08 09:14:00
5:34 AM,41.2,33.1,73,30.03,10.0,Calm,Calm,-,N/A,,Clear,0,2013-05-08 09:34:00
5:54 AM,41.4,32.9,72,30.03,10.0,Calm,Calm,-,N/A,,Clear,0,2013-05-08 09:54:00
6:14 AM,42.3,33.1,70,30.04,10.0,Calm,Calm,-,N/A,,Clear,0,2013-05-08 10:14:00
6:34 AM,42.8,33.4,70,30.04,10.0,NNW,3.5,-,N/A,,Clear,330,2013-05-08 10:34:00
6:54 AM,43.3,33.8,69,30.04,10.0,Calm,Calm,-,N/A,,Clear,0,2013-05-08 10:54:00
7:14 AM,45.7,36.1,69,30.05,10.0,Calm,Calm,-,N/A,,Clear,0,2013-05-08 11:14:00
7:34 AM,48.4,35.8,62,30.05,10.0,NNW,3.5,-,N/A,,Clear,330,2013-05-08 11:34:00
7:54 AM,51.4,36.5,57,30.05,10.0,North,3.5,-,N/A,,Clear,350,2013-05-08 11:54:00
8:14 AM,54.1,37.8,54,30.05,10.0,NNE,4.6,-,N/A,,Clear,20,2013-05-08 12:14:00
8:34 AM,55.4,39.0,54,30.05,10.0,North,4.6,-,N/A,,Clear,10,2013-05-08 12:34:00
8:54 AM,57.7,40.5,53,30.05,10.0,Calm,Calm,-,N/A,,Clear,0,2013-05-08 12:54:00
9:14 AM,61.0,39.9,46,30.05,10.0,ENE,4.6,-,N/A,,Clear,70,2013-05-08 13:14:00
9:34 AM,63.5,36.1,36,30.05,10.0,East,3.5,-,N/A,,Clear,80,2013-05-08 13:34:00
9:54 AM,64.8,34.7,33,30.05,10.0,ENE,3.5,-,N/A,,Clear,60,2013-05-08 13:54:00
10:14 AM,65.8,33.1,30,30.05,10.0,Calm,Calm,-,N/A,,Clear,0,2013-05-08 14:14:00
10:34 AM,67.5,33.4,28,30.05,10.0,East,4.6,-,N/A,,Clear,90,2013-05-08 14:34:00
10:54 AM,67.5,33.6,29,30.05,10.0,East,6.9,-,N/A,,Clear,90,2013-05-08 14:54:00
11:14 AM,67.3,33.3,28,30.05,10.0,East,3.5,-,N/A,,Clear,80,2013-05-08 15:14:00
11:34 AM,70.0,34.5,27,30.05,10.0,East,4.6,-,N/A,,Clear,100,2013-05-08 15:34:00
11:54 AM,72.0,34.2,25,30.05,10.0,East,5.8,-,N/A,,Clear,80,2013-05-08 15:54:00
12:14 PM,68.7,34.2,28,30.05,10.0,East,9.2,17.3,N/A,,Clear,100,2013-05-08 16:14:00
12:34 PM,63.5,33.1,32,30.04,10.0,East,8.1,-,N/A,,Clear,80,2013-05-08 16:34:00
12:54 PM,67.1,34.7,30,30.04,10.0,East,5.8,-,N/A,,Clear,90,2013-05-08 16:54:00
1:14 PM,67.1,34.0,29,30.04,10.0,East,8.1,-,N/A,,Clear,100,2013-05-08 17:14:00
1:34 PM,68.0,33.6,28,30.03,10.0,East,8.1,-,N/A,,Clear,80,2013-05-08 17:34:00
1:54 PM,68.7,34.5,28,30.02,10.0,East,6.9,-,N/A,,Clear,90,2013-05-08 17:54:00
2:14 PM,68.0,33.6,28,30.02,10.0,East,9.2,-,N/A,,Clear,100,2013-05-08 18:14:00
2:34 PM,68.5,33.1,27,30.02,10.0,East,5.8,-,N/A,,Clear,80,2013-05-08 18:34:00
2:54 PM,70.3,33.6,26,30.01,10.0,East,6.9,-,N/A,,Clear,90,2013-05-08 18:54:00
3:14 PM,70.9,32.5,24,30.01,10.0,East,8.1,-,N/A,,Clear,80,2013-05-08 19:14:00
3:34 PM,69.8,33.8,27,30.00,10.0,East,9.2,-,N/A,,Clear,80,2013-05-08 19:34:00
3:54 PM,68.5,33.8,28,30.00,10.0,East,8.1,-,N/A,,Clear,90,2013-05-08 19:54:00
4:13 PM,66.9,33.3,29,30.00,10.0,East,6.9,-,N/A,,Clear,90,2013-05-08 20:13:00
4:34 PM,67.3,34.7,30,29.99,10.0,East,5.8,-,N/A,,Clear,80,2013-05-08 20:34:00
4:54 PM,67.6,34.7,30,29.99,10.0,East,5.8,-,N/A,,Clear,80,2013-05-08 20:54:00
5:13 PM,68.7,34.5,28,29.99,10.0,ENE,8.1,-,N/A,,Clear,70,2013-05-08 21:13:00
5:34 PM,67.3,33.6,29,29.98,10.0,East,5.8,-,N/A,,Clear,90,2013-05-08 21:34:00
5:54 PM,67.1,33.3,29,29.98,10.0,ENE,6.9,-,N/A,,Clear,70,2013-05-08 21:54:00
6:14 PM,65.7,31.6,28,29.98,10.0,East,5.8,-,N/A,,Clear,90,2013-05-08 22:14:00
6:34 PM,66.4,32.0,28,29.98,10.0,East,5.8,-,N/A,,Clear,80,2013-05-08 22:34:00
6:54 PM,65.3,31.5,28,29.98,10.0,East,5.8,-,N/A,,Clear,80,2013-05-08 22:54:00
7:14 PM,63.0,31.6,31,29.98,10.0,ENE,4.6,-,N/A,,Clear,70,2013-05-08 23:14:00
7:34 PM,62.6,31.8,32,29.98,10.0,NNE,3.5,-,N/A,,Clear,30,2013-05-08 23:34:00
7:54 PM,61.2,33.6,36,29.98,10.0,Calm,Calm,-,N/A,,Clear,0,2013-05-08 23:54:00
8:14 PM,59.7,32.2,35,29.97,10.0,Calm,Calm,-,N/A,,Clear,0,2013-05-09 00:14:00
8:34 PM,60.1,32.0,35,29.98,10.0,Calm,Calm,-,N/A,,Clear,0,2013-05-09 00:34:00
8:54 PM,59.5,32.0,35,29.97,10.0,Calm,Calm,-,N/A,,Clear,0,2013-05-09 00:54:00
9:14 PM,57.6,34.5,42,29.97,10.0,Calm,Calm,-,N/A,,Clear,0,2013-05-09 01:14:00
9:34 PM,55.9,34.9,45,29.98,10.0,Calm,Calm,-,N/A,,Clear,0,2013-05-09 01:34:00
9:54 PM,53.4,33.8,47,29.98,10.0,Calm,Calm,-,N/A,,Clear,0,2013-05-09 01:54:00
10:14 PM,53.1,34.9,50,29.98,10.0,Calm,Calm,-,N/A,,Clear,0,2013-05-09 02:14:00
10:34 PM,51.3,37.6,60,29.98,10.0,Calm,Calm,-,N/A,,Clear,0,2013-05-09 02:34:00
10:54 PM,50.5,36.1,58,29.98,10.0,Calm,Calm,-,N/A,,Clear,0,2013-05-09 02:54:00
11:14 PM,49.3,35.4,59,29.98,10.0,Calm,Calm,-,N/A,,Clear,0,2013-05-09 03:14:00
11:34 PM,49.1,34.7,58,29.98,10.0,West,3.5,-,N/A,,Clear,260,2013-05-09 03:34:00
11:54 PM,47.3,35.2,63,29.97,10.0,Calm,Calm,-,N/A,,Clear,0,2013-05-09 03:54:00